Weather History for Joplin, MO

Change the Weather History Date:

Wednesday, May 22, 2013

  Actual Average Record
Temperature  
Mean Temperature 64 °F 68 °F  
Max Temperature 72 °F 79 °F 93 °F (1953)
Min Temperature 56 °F 58 °F 44 °F (2001)
Degree Days  
Heating Degree Days 1 1  
Month to date heating degree days 139 57  
Since 1 July heating degree days 4243 4060  
Cooling Degree Days 0 5  
Month to date cooling degree days 53 74  
Year to date cooling degree days 83 128  
Growing Degree Days 13 (Base 50)    
Moisture  
Dew Point 56 °F    
Average Humidity 81    
Maximum Humidity 100    
Minimum Humidity 61    
Precipitation  
Precipitation 0.00 in 0.17 in 1.86 in (1971)
Month to date precipitation 4.11 4.13  
Year to date precipitation 18.61 16.37  
Snow  
Snow 0.00 in - - ()
Month to date snowfall 0.0  
Snow Depth 0.00 in    
Sea Level Pressure  
Sea Level Pressure 29.85 in    
Wind  
Wind Speed 8 mph (WSW)    
Max Wind Speed 17 mph    
Max Gust Speed 22 mph    
Visibility 10 miles    
Events      
T = Trace of Precipitation, MM = Missing Value Source: NWS Daily Summary

Daily Weather History Graph

Daily Weather History Graph

Search for Another Location

Airport:

Trip Planner

Search our weather history database for the weather conditions in past years. The results will help you decide how hot, cold, wet, or windy it might be!

Date:

Astronomy

May. 22, 2013 Rise Set
Actual Time 6:04 AM CDT 8:25 PM CDT
Civil Twilight 5:34 AM CDT 8:55 PM CDT
Nautical Twilight 4:58 AM CDT 9:31 PM CDT
Astronomical Twilight 4:18 AM CDT 10:12 PM CDT
Moon 5:51 PM CDT 4:05 AM CDT
Length of Visible Light 15h 20m
Length of Day
14h 21m
Waxing Gibbous, 91% of the Moon is Illuminated
May 22
Waxing Gibbous
May 24
Full
May 31
Last Quarter
Jun 8
New
Jun 16
First Quarter

Hourly Weather History & Observations

Time (CDT) Temp. Dew Point Humidity Pressure Visibility Wind Dir Wind Speed Gust Speed Precip Events Conditions
12:53 AM 55.9 °F 55.0 °F 97% 29.79 in 10.0 mi SSW 5.8 mph - N/A   Clear
1:53 AM 55.9 °F 55.0 °F 97% 29.78 in 10.0 mi SSW 6.9 mph - N/A   Clear
2:53 AM 55.9 °F 55.0 °F 97% 29.77 in 10.0 mi SW 5.8 mph - N/A   Clear
3:53 AM 57.0 °F 55.9 °F 96% 29.78 in 10.0 mi SSW 9.2 mph - N/A   Mostly Cloudy
4:53 AM 55.9 °F 55.0 °F 97% 29.80 in 10.0 mi SSW 6.9 mph - N/A   Mostly Cloudy
5:53 AM 55.9 °F 55.0 °F 97% 29.79 in 10.0 mi SSW 10.4 mph - N/A   Scattered Clouds
6:53 AM 55.9 °F 55.0 °F 97% 29.82 in 10.0 mi SW 8.1 mph - N/A   Clear
7:53 AM 59.0 °F 55.9 °F 90% 29.82 in 10.0 mi SW 10.4 mph - N/A   Partly Cloudy
8:53 AM 61.0 °F 55.9 °F 83% 29.84 in 10.0 mi WSW 11.5 mph - N/A   Partly Cloudy
9:53 AM 64.0 °F 55.9 °F 75% 29.85 in 10.0 mi WSW 10.4 mph - N/A   Clear
10:53 AM 66.0 °F 55.0 °F 68% 29.86 in 10.0 mi WSW 13.8 mph 18.4 mph N/A   Mostly Cloudy
11:53 AM 68.0 °F 55.0 °F 63% 29.87 in 10.0 mi West 12.7 mph 19.6 mph N/A   Scattered Clouds
12:53 PM 68.0 °F 55.9 °F 65% 29.88 in 10.0 mi West 11.5 mph 19.6 mph N/A   Mostly Cloudy
1:53 PM 70.0 °F 55.9 °F 61% 29.88 in 10.0 mi West 10.4 mph 18.4 mph N/A   Mostly Cloudy
2:53 PM 69.1 °F 55.0 °F 61% 29.88 in 10.0 mi West 10.4 mph - N/A   Mostly Cloudy
3:53 PM 70.0 °F 55.9 °F 61% 29.87 in 10.0 mi WNW 11.5 mph - N/A   Scattered Clouds
4:53 PM 71.1 °F 57.0 °F 61% 29.86 in 10.0 mi NW 6.9 mph - N/A   Mostly Cloudy
5:53 PM 70.0 °F 55.9 °F 61% 29.86 in 10.0 mi West 9.2 mph - N/A   Partly Cloudy
6:53 PM 70.0 °F 55.9 °F 61% 29.86 in 10.0 mi West 6.9 mph - N/A   Clear
7:53 PM 66.9 °F 57.0 °F 70% 29.88 in 10.0 mi WSW 4.6 mph - N/A   Scattered Clouds
8:53 PM 63.0 °F 57.0 °F 81% 29.90 in 10.0 mi Calm Calm - N/A   Clear
9:53 PM 59.0 °F 57.0 °F 93% 29.93 in 10.0 mi Calm Calm - N/A   Clear
10:53 PM 59.0 °F 57.0 °F 93% 29.94 in 10.0 mi South 3.5 mph - N/A   Clear
11:53 PM 57.9 °F 55.9 °F 93% 29.94 in 10.0 mi Calm Calm - N/A   Clear